Weather History for CWWE - April, 2013

Change the Weather History Date:

Monday, April 15, 2013

  Actual Average Record
Temperature  
Mean Temperature 41 °F -  
Max Temperature 47 °F - - ()
Min Temperature 35 °F - - ()
Degree Days  
Heating Degree Days 24    
Moisture  
Dew Point 37 °F    
Average Humidity 90    
Maximum Humidity 100    
Minimum Humidity 53    
Precipitation  
Precipitation 0.02 in - - ()
Sea Level Pressure  
Sea Level Pressure 30.29 in    
Wind  
Wind Speed 4 mph ()    
Max Wind Speed 13 mph    
Max Gust Speed -    
T = Trace of Precipitation, MM = Missing Value Source: Averaged Metar Reports

Daily Weather History Graph

Daily Weather History Graph

Search for Another Location

Airport or City:

Trip Planner

Search our weather history database for the weather conditions in past years. The results will help you decide how hot, cold, wet, or windy it might be!

Date:

Astronomy

Apr. 15, 2013 Rise Set
Actual Time 6:35 AM ADT 8:02 PM ADT
Civil Twilight 6:05 AM ADT 8:33 PM ADT
Nautical Twilight 5:28 AM ADT 9:09 PM ADT
Astronomical Twilight 4:50 AM ADT 9:48 PM ADT
Moon 9:51 AM ADT (4/15) 12:17 AM ADT (4/15)
Length of Visible Light 14h 27m
Length of Day
13h 27m
Waxing Crescent, 24% of the Moon is Illuminated
Apr 15
Waxing Crescent
Apr 18
First Quarter
Apr 25
Full
May 2
Last Quarter
May 9
New

Hourly Weather History & Observations

Time (ADT) Temp. Windchill Dew Point Humidity Pressure Visibility Wind Dir Wind Speed Gust Speed Precip Events Conditions
12:00 AM 38 °F - 37 °F 96% 30.10 in - ESE 2.3 mph - -  
12:00 AM 37.6 °F - 37.2 °F 99% 30.10 in - ESE 2.3 mph - N/A   Unknown
1:00 AM 37.0 °F 33.3 °F 36.7 °F 99% 30.12 in - NE 4.6 mph - N/A   Unknown
2:00 AM 36.7 °F 32.0 °F 36.3 °F 99% 30.13 in - ENE 5.8 mph - N/A   Unknown
3:00 AM 36 °F - 36 °F 100% 30.15 in - NE 5.8 mph - -  
3:00 AM 36.3 °F 31.6 °F 36.0 °F 99% 30.15 in - NE 5.8 mph - N/A   Unknown
4:00 AM 36.0 °F 32.1 °F 35.6 °F 99% 30.16 in - NE 4.6 mph - N/A   Unknown
5:00 AM 35.8 °F 33.0 °F 35.4 °F 99% 30.17 in - North 3.5 mph - N/A   Unknown
6:00 AM 36 °F - 35 °F 96% 30.19 in - North 2.3 mph - -  
6:00 AM 35.6 °F - 35.2 °F 99% 30.19 in - North 2.3 mph - N/A   Unknown
7:00 AM 36.0 °F - 35.6 °F 99% 30.22 in - North 1.2 mph - N/A   Unknown
8:00 AM 36.9 °F - 36.5 °F 99% 30.26 in - North 1.2 mph - N/A   Unknown
9:00 AM 38 °F - 38 °F 100% 30.29 in - NNE 1.2 mph - -  
9:00 AM 38.3 °F - 37.9 °F 99% 30.29 in - NNE 1.2 mph - N/A   Unknown
10:00 AM 40.6 °F 38.6 °F 39.2 °F 95% 30.31 in - NE 3.5 mph - N/A   Unknown
11:00 AM 40.8 °F 38.8 °F 38.7 °F 92% 30.34 in - East 3.5 mph - N/A   Unknown
12:00 PM 44 °F - 40 °F 79% 30.35 in - ENE 6.9 mph - -  
12:00 PM 43.7 °F 39.7 °F 39.7 °F 86% 30.35 in - ENE 6.9 mph - N/A   Unknown
1:00 PM 42.3 °F 38.6 °F 36.1 °F 79% 30.36 in - North 5.8 mph - N/A   Unknown
2:00 PM 44.1 °F 40.8 °F 36.0 °F 73% 30.36 in - NNE 5.8 mph - N/A   Unknown
3:00 PM 47 °F - 35 °F 53% 30.35 in - NE 4.6 mph - -  
3:00 PM 46.8 °F - 35.4 °F 65% 30.35 in - NE 4.6 mph - 0.02 in   Unknown
4:00 PM 43.9 °F 42.3 °F 36.9 °F 76% 30.36 in - East 3.5 mph - N/A   Unknown
5:00 PM 42.6 °F 38.4 °F 35.4 °F 76% 30.36 in - SE 6.9 mph - N/A   Unknown
6:00 PM 40.3 °F 33.9 °F 36.3 °F 86% 30.37 in - SSW 10.4 mph - N/A   Unknown
7:00 PM 39.0 °F 31.4 °F 35.8 °F 88% 30.38 in - SSW 12.7 mph - N/A   Unknown
8:00 PM 38.3 °F 30.9 °F 36.0 °F 91% 30.39 in - SSW 11.5 mph - N/A   Unknown
9:00 PM 39 °F - 36 °F 87% 30.41 in - SW 10.4 mph - -  
9:00 PM 38.7 °F 31.8 °F 36.5 °F 92% 30.41 in - SW 10.4 mph - N/A   Unknown
10:00 PM 38.3 °F 31.9 °F 36.9 °F 95% 30.44 in - SSW 9.2 mph - N/A   Unknown
11:00 PM 37.0 °F 31.6 °F 36.0 °F 96% 30.45 in - SSW 6.9 mph - N/A   Unknown